Welcome to the New NWS' Forecast!
Most changes are behind the scenes, but click here for differences you might notice.
Latest weather observations around

Boston, Logan International Airport (KBOS)

Using English Units (Switch to International System of Units)
Date/ Time (EDT) Wind (mph) Vis. (mi) Weather Sky Cond. Temp (°F) Rel. Humidity Wind Chill (°F) Heat Index (°F) Pressure Precip. (in)
Air Dwpt 6 hour Altimeter (inHg) Sea level (inHg) 1 hr 3 hr 6 hr
Max Min
Aug 20 04:54 N 8 10 Mostly Cloudy FEW019 BKN040 BKN120 68 63     84%     30.11 30.11      
Aug 19 23:54 NE 14 10 Cloudy BKN010 BKN019 OVC025 68 65     90%     30.1 30.1 0    
Aug 19 22:54 NE 14 10 Cloudy FEW008 BKN017 OVC028 67 64     90%     30.1 30.1 0 0  
Aug 19 22:21 NE 15 3 Light Rain and Fog/Mist FEW009 BKN015 OVC026 67 64     90%     30.1   0    
Aug 19 19:54 NE 13 10 Cloudy SCT020 BKN050 OVC220 69 61     75%     30.09 30.09      
Aug 19 16:58   10 Mostly Cloudy BKN022 70 60     71%     30.07        
Aug 19 15:54   10 Mostly Cloudy SCT020 BKN029 BKN220 72 60     66%   72 30.06 30.06      
Notice The following observation data may not be complete
Aug 19 14:32   10 Cloudy SCT019 BKN027 OVC250          %              
Aug 19 09:54   10 Mostly Cloudy SCT022 BKN250 70 61     73%     30.03 30.03      
Aug 19 04:17   10 Cloudy SCT028 OVC080 68 61     78%     29.93        
Aug 19 00:54 NNE 13 10 Cloudy BKN013 OVC021 68 64     87%     29.92 29.91 0    
Aug 18 23:54 NE 10 2 Rain and Fog/Mist BKN010 OVC015 67 64     90%     29.91 29.9 0    
Aug 18 23:17 NE 13 6 Light Rain and Fog/Mist FEW007 BKN013 OVC028 67 64     90%     29.9   0    
Aug 18 21:54 NE 15 3 Light Rain and Fog/Mist BKN007 OVC013 69 66     90%     29.88 29.88 0    
Aug 18 21:47 NE 14 4 Light Rain and Fog/Mist BKN006 OVC013 69 66     90%     29.88   0    
Aug 18 17:54 3 7 Light Rain FEW011 SCT035 OVC110 75 71     88%   76 29.81 29.81 0    
Notice The following observation data may not be complete
Aug 18 17:16   5 Light Rain FEW050 SCT060 OVC130          %         0    
Aug 18 17:10 Calm 4 Thunderstorms and Rain FEW050 SCT060 OVC130 76 70     82%   77 29.79   0    
Aug 18 12:54 WSW 11 10 Mostly Cloudy FEW025 SCT070 BKN130 BKN220 85 71     63%   90 29.77 29.76      
Aug 18 11:54 W 9 10 Mostly Cloudy FEW025 SCT070 BKN130 BKN220 84 70     63%   88 29.78 29.78      
Aug 18 10:54 WSW 13 10 Mostly Cloudy FEW025 SCT060 BKN130 BKN220 81 71     72%   85 29.79 29.79   0  
Aug 18 06:54 SW 15 10 Cloudy FEW014 SCT023 BKN110 OVC220 75 71     88%   76 29.81 29.8      
Aug 18 04:54 SW 10 10 Cloudy FEW080 BKN200 OVC220 76 72     88%   77 29.82 29.82   0  
Aug 17 22:54 SSW 8 9 Cloudy SCT110 OVC200 78 72     82%   79 29.92 29.91      
Notice The following observation data may not be complete
Aug 17 19:08   6 Fog/Mist FEW034 BKN130 BKN200          %         0    
Aug 17 18:54 ESE 6 6 Thunderstorms and Rain and Fog/Mist SCT034 SCT085 BKN200 75 71     88%   76 29.94 29.94 0    
Aug 17 18:36 WNW 8 5 Thunderstorms and Rain and Fog/Mist FEW007 SCT034 BKN085 BKN200 74 70     87%   75 29.96   0    
Aug 17 18:06 ENE 7 6 Thunderstorms and Rain FEW021 SCT033 BKN100 BKN200 75 70     84%   76 29.96   0    
Aug 17 15:54 ENE 9 5 Haze FEW011 FEW034 SCT130 BKN200 OVC310 77 71     82%   78 29.98 29.98      
Aug 17 14:54 ENE 10 6 Haze FEW011 FEW034 BKN200 OVC310 76 71     85%   77 30.01 30.01      
Aug 17 13:54 ENE 10 10 Mostly Cloudy FEW200 BKN250 77 71     82%   78 30.04 30.04      
Aug 17 12:54 ENE 10 10 Mostly Cloudy FEW030 SCT200 BKN250 77 71     82%   78 30.06 30.06      
Aug 17 11:54 ENE 10 10 Mostly Cloudy BKN250 76 70     82%   77 30.08 30.07      
Aug 17 10:54 ENE 10 10 Mostly Clear FEW250 76 68     76%   77 30.09 30.09      
Aug 17 09:54 ENE 9 10 Mostly Clear FEW250 76 67     74%   77 30.09 30.09      
Aug 17 08:54 ENE 7 10 Clear CLR 75 66     74%   76 30.1 30.09      
Aug 17 07:54 NNE 5 10 Clear CLR 73 65     76%   74 30.1 30.1      
Aug 17 06:54 NNE 6 10 Mostly Clear FEW250 71 64     79%   72 30.1 30.1      
Aug 17 05:54 N 7 10 Mostly Clear FEW040 FEW250 70 62     76%     30.09 30.09      
Aug 17 04:54 NE 5 10 Mostly Clear FEW040 FEW250 71 62     73%   71 30.09 30.09      
Aug 17 03:54 NNE 6 10 Partly Cloudy SCT040 71 62     73%   71 30.08 30.08      
Aug 17 02:54 NNE 5 10 Mostly Clear FEW043 72 62     71%   72 30.08 30.08      
Aug 17 01:54 NE 3 10 Mostly Clear FEW050 75 59     57%   75 30.08 30.08      
Aug 17 00:54 NNE 3 10 Mostly Clear FEW050 77 62     60%   77 30.07 30.07      
Aug 16 23:54 Calm 10 Mostly Clear FEW055 77 66     69%   78 30.07 30.07      
Aug 16 22:54 E 3 10 Mostly Clear FEW060 77 66     69%   78 30.06 30.06      
Aug 16 21:54 SE 3 10 Mostly Cloudy BKN065 78 67     69%   79 30.05 30.05      
Aug 16 20:54 E 6 10 Mostly Clear FEW050 78 67     69%   79 30.04 30.03      
Aug 16 19:54 E 7 10 Mostly Clear FEW060 80 65     60%   82 30.02 30.01      
Aug 16 18:54 N 9 10 Mostly Clear FEW045 FEW065 87 61     42%   87 29.99 29.99      
Aug 16 17:54   10 Partly Cloudy SCT060 90 61     38%   90 29.98 29.98      
Aug 16 16:54   9 Mostly Cloudy SCT055 BKN110 89 65     45%   91 29.97 29.96      
Aug 16 15:54 W 8 8 Mostly Cloudy FEW050 BKN060 91 68     47%   95 29.96 29.96      
Aug 16 14:54 W 10 8 Mostly Cloudy BKN055 90 67     47%   93 29.96 29.96      
Aug 16 13:54 W 11 10 Partly Cloudy FEW040 SCT055 90 67     47%   93 29.97 29.96      
Aug 16 12:54 W 11 10 Partly Cloudy FEW042 SCT055 90 69     50%   95 29.97 29.97      
Aug 16 11:54 W 14 10 Mostly Clear FEW040 88 69     54%   92 29.98 29.97      
Aug 16 10:54 W 11 10 Mostly Clear FEW040 87 69     55%   91 29.98 29.97      
Aug 16 09:54 W 11 10 Clear CLR 84 69     61%   88 29.98 29.98      
Aug 16 08:54 W 11 10 Clear CLR 82 69     65%   85 29.98 29.98      
Aug 16 07:54 W 8 10 Mostly Clear FEW250 80 69     69%   83 29.98 29.98      
Aug 16 06:54 W 6 10 Mostly Clear FEW180 FEW250 78 69     74%   79 29.96 29.96      
Aug 16 05:54 WNW 9 10 Partly Cloudy SCT140 SCT250 77 68     74%   78 29.94 29.94      
Aug 16 04:54 WNW 10 10 Mostly Clear FEW250 77 68     74%   78 29.93 29.92      
Aug 16 03:54 W 10 10 Mostly Clear FEW250 78 68     71%   79 29.92 29.92      
Aug 16 02:54 WNW 10 10 Mostly Clear FEW250 79 68     69%   80 29.9 29.9      
Aug 16 01:54 WNW 11 10 Mostly Clear FEW150 FEW250 80 68     67%   83 29.9 29.9      
Aug 16 00:54 W 7 10 Partly Cloudy FEW150 SCT250 80 67     64%   82 29.91 29.91      
Aug 15 23:54 W 9 10 Mostly Clear FEW250 81 67     62%   83 29.89 29.89      
Aug 15 22:54 W 9 10 Mostly Clear FEW250 82 68     63%   85 29.9 29.89      
Aug 15 21:54 W 10 10 Mostly Cloudy FEW130 BKN210 83 69     63%   87 29.89 29.89      
Aug 15 20:54 W 7 10 Mostly Cloudy FEW130 BKN210 86 68     55%   89 29.88 29.88      
Aug 15 19:54 W 7 10 Mostly Cloudy FEW045 BKN230 86 67     53%   89 29.86 29.85      
Aug 15 18:54 W 7 10 Mostly Cloudy FEW050 BKN230 86 66     51%   88 29.83 29.83      
Aug 15 17:54 3 10 Partly Cloudy FEW055 SCT230 87 67     51%   90 29.83 29.83      
Aug 15 16:54 SE 7 10 Mostly Cloudy SCT055 BKN230 82 70     67%   86 29.82 29.82      
Aug 15 15:54 ESE 8 10 Mostly Cloudy BKN050 BKN120 BKN250 81 70     69%   84 29.82 29.82      
May 15 07:22   6 Fog/Mist BKN006 BKN250 59 57     93%     29.85        
May 14 06:51 S 7 10 Cloudy FEW009 BKN030 OVC037 52 48     87%     30.03        
May 13 12:54 ENE 8 10 Clear   52 47     83%     30.21 30.21      
Notice The following observation data may not be complete
May 13 09:08   7 Cloudy BKN010 BKN014 OVC026          %              
May 13 06:54 ENE 8 1.5 Fog/Mist OVC004 48 47     96% 44   30.18 30.18      
Notice The following observation data may not be complete
May 12 19:54   3 Fog/Mist BKN006 OVC012          %         0   0
May 12 15:54 NNE 7 3 Light Rain and Fog/Mist BKN013 OVC045 49 46     90% 46   30.12 30.11 0    
Notice The following observation data may not be complete
May 11 19:54 E 8 10 Mostly Cloudy FEW035 SCT170 BKN310   43      %     30.06 30.05      
May 11 17:54 NW 10 10 Mostly Cloudy FEW035 BKN170 BKN310 70 22     16%     30 30      
Jun 12 05:54 WSW 6 10 Mostly Clear FEW150 FEW250 72 63     73%   72 29.96 29.95      
Jun 10 18:54 S 14 10 Clear   78 55     45%   78 29.91 29.91      
Jun 09 12:54 SE 8 10 Mostly Cloudy FEW050 BKN140 BKN250 70        %     29.63 29.63      
Jun 09 00:54 NE 6 10 Cloudy OVC130 56 53     90%     29.81 29.81      
Jun 08 19:54 SE 9 10 Cloudy BKN130 OVC250 61        %     29.91 29.91      
Jun 08 08:54 SSE 6 10 Partly Cloudy SCT250 61 54     78%     30.05 30.04      
Jun 06 14:26   3 Light Rain and Fog/Mist SCT008 BKN012 OVC023 48 48     100%     29.85   0    
Jun 06 13:33 NNE 18 1.25 Rain and Fog/Mist SCT005 BKN010 OVC016 48 47     96% 41   29.86   0